This is the latest recevied weather packets stored in our database for station/object WD8INF-9. If no packets are shown the sender has not sent any weather packets the latest 10 day(s).
| Time | Temp. | Humidity | Pressure | Rain* | Wind** | Luminosity | Snow |
|---|---|---|---|---|---|---|---|
| 1777583013 | 17.78° C | - | 1013.9 hPa | 0 mm | - | - | - |
| 1777582713 | 23.89° C | - | 1013.8 hPa | 0 mm | - | - | - |
| 1777582413 | 25.56° C | - | 1013.5 hPa | 0 mm | - | - | - |
| 1777582113 | 25° C | - | 1013.9 hPa | 0 mm | - | - | - |
| 1777581811 | 26.11° C | - | 1013.8 hPa | 0 mm | - | - | - |
| 1777581511 | 28.33° C | - | 1013.8 hPa | 0 mm | - | - | - |
| 1777581211 | 27.22° C | - | 1013.7 hPa | 0 mm | - | - | - |
| 1777580912 | 22.78° C | - | 1013.9 hPa | 0 mm | - | - | - |
| 1777580912 | 22.78° C | - | 1013.9 hPa | 0 mm | - | - | - |
| 1777580609 | 22.78° C | - | 1014 hPa | 0 mm | - | - | - |
| 1777580309 | 19.44° C | - | 1014.1 hPa | 0 mm | - | - | - |
| 1777580009 | 23.89° C | - | 1013.8 hPa | 0 mm | - | - | - |
| 1777579708 | 26.11° C | - | 1014.1 hPa | 0 mm | - | - | - |
| 1777579406 | 25.56° C | - | 1014.2 hPa | 0 mm | - | - | - |
| 1777579106 | 21.67° C | - | 1014.4 hPa | 0 mm | - | - | - |
| 1777578806 | 25.56° C | - | 1014.2 hPa | 0 mm | - | - | - |
| 1777578506 | 25.56° C | - | 1014.2 hPa | 0 mm | - | - | - |
| 1777578206 | 21.11° C | - | 1014.2 hPa | 0 mm | - | - | - |
| 1777577905 | 21.67° C | - | 1014.1 hPa | 0 mm | - | - | - |
| 1777577605 | 21.67° C | - | 1014.6 hPa | 0 mm | - | - | - |
| 1777577303 | 18.33° C | - | 1014.5 hPa | 0 mm | - | - | - |
| 1777577003 | 17.78° C | - | 1014.6 hPa | 0 mm | - | - | - |
| 1777576701 | 17.22° C | - | 1014.4 hPa | 0 mm | - | - | - |
| 1777576400 | 17.78° C | - | 1014.7 hPa | 0 mm | - | - | - |
| 1777576100 | 21.11° C | - | 1014.7 hPa | 0 mm | - | - | - |
* Rain since midnight (hover to see other rain measurements)
** Current wind speed in m/s (hover to see current wind gust speed)